Wetbulb
60.10 62.23 63.36 64.12 64.29 64.97 64.61 63.44 62.11 62.60 62.83 62.34 61.87 62.54 62.27 63.30 63.96 64.91 64.68 63.96 63.46 62.98 62.27 61.81 62.22 62.63 62.39 61.78 61.70 59.96 59.13 59.01 60.84 60.07 60.45 59.06 58.89 57.96 57.52 57.08 54.52 51.13 49.35
58.08 59.74 61.20 62.87 63.63 64.45 65.00 65.13 64.28 63.63 63.57 63.19 63.63 64.01 63.82 64.49 64.85 65.24 64.04 63.71 63.79 63.47 62.57 62.29 61.79 62.45 61.42 60.37 60.05 58.69 58.16 58.14 59.57 58.54 57.58 55.58 55.80 57.52 55.80 55.22 52.46 48.16 48.81
56.34 57.77 59.53 61.03 62.24 63.20 64.36 64.81 65.30 65.38 64.93 64.76 64.63 64.35 64.96 64.86 64.10 63.84 64.17 63.90 64.03 63.71 63.53 63.21 63.37 62.26 62.22 61.91 60.07 59.53 58.72 58.06 57.24 58.35 57.71 54.06 52.36 53.00 55.00 54.00 51.11 46.06 46.96
55.56 57.46 57.91 59.39 60.91 61.98 63.59 64.66 65.30 65.59 65.50 65.51 64.35 63.26 62.57 62.20 63.75 64.16 64.12 64.60 64.97 63.94 64.67 63.61 63.53 63.78 64.27 61.96 60.60 59.55 59.21 58.76 56.28 56.73 56.36 56.43 55.15 50.35 47.11 50.58 49.68 45.27 45.50
51.43 54.02 56.66 58.02 59.51 61.34 62.36 63.03 64.06 64.82 65.55 65.32 64.88 64.09 63.34 64.58 65.50 65.08 64.53 64.36 63.43 63.84 63.94 63.72 63.51 63.08 62.38 61.01 59.01 58.29 58.35 58.43 57.80 56.69 54.52 52.51 52.56 51.67 47.97 43.15 43.73 44.29 44.98
48.62 49.94 53.23 55.87 56.97 58.70 60.05 61.55 62.04 63.16 64.63 64.99 64.84 64.56 64.01 64.09 64.05 63.96 63.38 60.89 60.73 61.36 63.18 62.61 61.80 59.52 58.02 57.23 56.70 56.19 55.97 56.01 55.99 55.39 53.74 51.16 48.52 46.79 44.10 42.56 42.03 40.48 42.54
48.29 47.75 47.90 47.04 50.78 54.06 55.31 58.14 60.02 61.02 62.96 63.99 64.27 64.55 64.48 64.51 64.12 64.10 63.31 60.47 56.99 56.08 56.47 57.15 56.55 54.79 53.48 51.85 51.06 51.67 52.91 53.22 51.46 49.42 47.27 46.34 44.54 44.37 42.97 42.06 40.57 39.24 41.51
46.57 46.57 47.80 48.62 49.38 49.40 50.56 53.26 55.13 58.28 60.86 62.48 63.25 63.91 63.97 63.87 64.54 64.76 63.77 61.56 59.85 59.24 54.73 54.64 53.94 50.17 48.54 47.13 47.84 48.09 47.80 47.62 45.94 44.23 43.21 42.44 41.43 42.23 41.72 40.74 39.59 37.85 38.43
45.49 45.24 46.00 46.91 47.67 48.28 49.55 50.98 51.98 53.93 57.38 59.92 61.82 61.67 61.89 61.73 62.10 63.26 63.66 61.65 59.59 53.93 49.76 49.31 47.49 44.99 44.32 44.91 46.17 44.49 42.71 43.32 43.36 42.41 41.70 40.77 40.22 40.63 40.23 39.83 40.47 38.49 36.06
44.55 45.11 44.77 45.87 46.94 48.34 49.73 51.39 52.32 52.49 52.96 54.73 60.12 60.04 60.89 61.54 61.52 60.97 59.27 57.05 53.70 50.03 48.55 45.04 45.18 41.55 41.77 43.33 43.47 42.10 41.61 40.89 40.79 40.46 39.88 39.16 38.96 39.12 39.03 38.63 38.62 38.44 37.27
45.07 45.17 45.56 46.11 47.01 47.85 48.83 50.21 51.21 51.41 50.74 50.72 52.09 56.91 60.23 60.29 58.52 55.86 52.57 50.53 47.78 46.94 47.07 46.31 42.08 40.60 40.40 41.41 41.40 40.66 39.81 38.99 38.02 38.52 37.89 36.91 37.80 37.16 36.90 37.35 37.14 36.20 36.68
44.31 45.25 45.35 44.84 45.32 46.22 47.80 49.03 50.26 50.86 51.26 51.22 52.09 52.23 54.33 56.73 54.86 55.67 52.19 48.75 44.96 46.20 41.98 43.18 40.07 40.01 39.76 39.90 39.39 37.94 38.29 37.48 36.87 36.66 36.39 35.37 35.19 35.36 35.54 36.30 35.31 35.41 35.50
44.93 44.71 44.71 44.98 44.80 45.83 47.39 48.45 49.19 49.39 49.17 49.62 50.63 51.38 51.95 52.31 52.55 50.16 48.88 46.78 42.32 42.46 38.89 40.60 39.08 38.23 38.74 38.45 38.42 37.63 37.10 36.84 36.17 35.62 35.46 34.55 34.55 33.89 34.46 34.90 34.66 34.86 34.11
44.57 44.79 44.37 44.55 45.15 45.76 46.63 47.18 47.49 48.16 47.13 47.29 49.20 49.19 49.58 49.22 49.00 46.40 44.00 42.49 40.77 38.85 36.78 38.46 37.37 37.61 37.61 37.50 36.69 36.33 35.55 34.91 34.79 34.74 34.81 33.96 34.19 33.83 34.02 33.90 34.11 33.64 33.53
44.46 45.27 45.32 45.49 45.18 44.95 45.24 45.18 46.10 45.92 45.57 45.33 46.30 46.79 44.99 45.01 42.35 40.68 38.94 36.42 38.05 35.97 38.27 35.41 36.77 36.66 36.25 34.85 35.20 35.05 34.65 34.01 33.37 33.43 33.04 33.58 33.09 33.28 34.38 33.91 33.52 33.32 32.75
44.78 45.18 44.92 44.82 44.41 44.32 44.32 43.54 44.57 44.36 43.60 44.25 43.93 42.26 40.39 37.41 37.09 35.77 34.55 34.24 34.10 34.32 34.97 33.80 34.78 34.94 32.89 35.21 35.45 35.10 33.98 33.24 32.38 31.55 32.03 32.21 31.33 32.49 32.79 32.89 32.90 33.37 32.02
44.62 44.78 45.43 45.15 45.14 45.03 44.45 43.45 43.69 43.54 41.85 41.82 39.06 37.51 37.37 36.64 35.55 33.97 33.09 32.64 32.58 33.71 32.38 33.94 34.15 33.56 33.72 35.76 35.24 34.37 33.33 32.69 32.42 31.81 31.50 30.85 31.09 31.96 32.29 32.34 32.48 32.03 32.17
44.00 44.64 45.71 46.20 45.76 45.57 44.44 44.73 43.49 40.67 39.72 39.22 37.06 35.76 35.87 34.97 33.92 33.13 32.71 32.25 32.65 31.82 31.73 32.50 33.62 33.92 34.07 35.84 35.14 33.05 33.22 32.84 32.49 32.13 31.93 31.27 31.35 32.10 31.88 31.61 31.75 31.82 32.52
43.37 44.06 45.28 45.94 46.08 44.66 44.20 42.09 39.82 39.50 38.93 38.53 37.15 35.69 35.69 34.52 33.40 32.93 32.35 32.19 31.44 31.33 31.96 32.34 33.03 33.39 34.42 35.97 34.89 32.86 32.38 31.36 31.19 31.59 32.11 32.06 31.93 31.93 32.32 32.13 31.48 32.10 32.71
41.83 41.97 42.79 43.63 44.16 44.16 42.30 39.39 38.11 37.39 37.62 38.16 37.41 36.35 35.79 35.10 33.89 33.99 32.33 32.07 32.36 31.58 31.73 31.74 32.74 32.81 34.11 35.69 34.49 32.70 32.32 31.18 30.63 30.87 31.34 30.55 32.20 32.00 32.31 32.43 31.67 29.98 31.87
39.50 40.70 41.35 41.59 42.60 41.08 39.20 38.23 37.70 36.54 38.24 37.17 36.27 34.98 34.97 34.87 34.69 33.44 32.16 31.43 31.60 31.27 31.41 31.15 31.55 32.29 33.63 34.50 35.03 33.81 31.99 31.63 31.10 30.83 30.45 30.96 32.39 32.52 32.64 32.72 32.40 32.03 32.83
37.85 37.60 38.45 38.39 39.00 38.66 37.80 37.25 36.85 37.95 36.13 35.08 33.98 33.65 33.41 33.78 33.64 32.74 31.61 31.65 31.47 30.91 30.48 30.44 29.41 30.17 31.12 33.05 35.45 35.47 33.73 33.65 31.91 31.20 31.44 31.83 31.84 31.96 32.13 31.95 32.91 33.25 32.10
34.06 33.80 33.79 34.44 35.40 33.87 36.21 35.79 36.46 35.02 33.64 33.01 32.63 32.61 32.70 32.95 32.79 32.37 31.30 31.24 31.34 31.11 29.94 29.15 28.87 28.32 28.67 30.20 33.35 34.70 35.42 34.14 32.09 32.15 31.79 31.51 31.05 31.28 31.82 32.77 32.24 29.61 29.59
31.44 31.18 32.42 32.31 32.60 32.11 31.88 33.97 33.85 33.48 32.53 32.64 32.33 32.24 31.77 32.03 32.11 32.75 31.86 31.69 30.97 30.68 29.98 29.51 29.27 28.52 27.69 28.22 30.76 32.21 33.67 32.96 32.93 31.19 31.13 30.79 30.84 30.99 30.95 28.50 28.15 27.10 26.87
29.93 30.06 30.15 30.75 30.94 30.43 31.44 31.76 31.84 32.27 32.65 32.62 31.70 31.98 32.35 31.42 31.52 31.97 31.95 31.93 32.50 32.51 30.89 30.58 29.69 28.21 27.44 27.99 29.77 30.88 31.17 31.45 31.54 30.54 29.13 27.87 27.76 27.33 27.16 25.94 24.68 24.38 23.69
28.50 29.58 29.28 29.05 29.21 29.07 28.80 29.14 28.45 30.94 31.68 31.31 30.41 31.33 31.74 30.56 30.97 30.81 29.79 31.92 32.05 31.66 32.78 32.68 31.42 30.58 31.09 31.35 30.50 30.71 31.01 31.13 30.58 27.73 25.90 26.01 26.61 25.61 25.51 24.35 22.83 21.81 20.30
MSLP
1016.92 1017.70 1018.38 1018.88 1019.16 1019.52 1020.01 1020.38 1020.91 1021.37 1022.03 1022.53 1023.02 1023.35 1023.40 1023.63 1023.81 1024.09 1024.54 1025.01 1025.26 1025.46 1025.72 1025.85 1025.91 1026.01 1026.03 1026.21 1026.23 1026.64 1026.62 1026.74 1026.68 1026.36 1026.10 1026.42 1026.68 1026.72 1026.80 1026.89 1027.05 1027.52 1027.70
1016.48 1016.99 1017.50 1018.17 1018.84 1018.90 1019.17 1019.63 1020.18 1020.64 1021.29 1021.64 1021.90 1022.20 1022.58 1022.83 1022.87 1023.29 1023.98 1024.23 1024.54 1024.82 1025.09 1025.28 1025.54 1025.54 1025.86 1026.20 1026.38 1026.57 1026.64 1026.68 1026.75 1026.41 1026.46 1026.07 1026.42 1026.60 1026.87 1027.22 1027.35 1027.54 1027.78
1015.42 1016.20 1016.79 1017.10 1017.84 1018.09 1018.36 1018.71 1019.22 1019.75 1020.38 1020.88 1021.30 1021.80 1022.02 1022.41 1022.65 1023.00 1023.33 1023.63 1023.86 1024.04 1024.26 1024.51 1024.83 1025.09 1025.28 1025.44 1025.87 1026.15 1026.40 1026.50 1026.93 1026.83 1026.66 1026.32 1026.25 1026.79 1027.12 1027.36 1027.65 1027.85 1028.03
1014.82 1015.13 1015.87 1016.32 1016.70 1016.97 1017.70 1018.11 1018.30 1018.75 1019.33 1019.94 1020.49 1020.89 1021.10 1021.39 1021.64 1021.92 1022.26 1022.44 1023.02 1023.37 1023.72 1023.93 1024.15 1024.33 1024.42 1024.88 1025.29 1025.72 1026.00 1026.24 1026.53 1026.95 1027.13 1027.18 1027.20 1026.90 1026.94 1027.55 1027.86 1027.86 1028.18
1013.91 1014.17 1014.74 1015.13 1015.58 1016.45 1016.77 1017.27 1017.61 1017.93 1018.45 1019.11 1019.47 1020.03 1020.38 1020.50 1020.78 1021.20 1021.60 1022.00 1022.30 1022.71 1023.02 1023.31 1023.61 1023.84 1024.29 1024.77 1025.32 1025.81 1026.00 1026.22 1026.39 1026.54 1027.14 1027.62 1027.71 1027.72 1027.41 1027.26 1027.49 1027.94 1028.39
1013.48 1013.47 1013.87 1014.65 1015.04 1015.69 1016.16 1016.61 1016.99 1017.17 1017.77 1018.34 1018.86 1018.86 1019.31 1019.92 1020.26 1020.70 1021.08 1021.52 1021.90 1022.30 1022.48 1022.85 1023.24 1023.85 1024.43 1024.84 1025.37 1025.84 1026.00 1026.34 1026.64 1027.00 1027.39 1027.44 1027.54 1027.68 1027.93 1028.19 1028.33 1028.41 1028.49
1012.50 1013.10 1013.80 1014.19 1014.35 1014.78 1015.23 1015.90 1016.23 1016.50 1016.98 1017.55 1017.94 1018.26 1018.48 1018.95 1019.42 1019.81 1020.37 1020.79 1021.61 1022.23 1022.59 1022.77 1023.43 1023.97 1024.51 1025.11 1025.52 1025.80 1026.08 1026.38 1026.76 1027.32 1027.68 1027.94 1028.28 1028.45 1028.57 1028.72 1029.09 1029.16 1029.02
1012.27 1012.57 1012.78 1013.53 1014.07 1014.50 1014.74 1015.24 1015.62 1015.89 1016.32 1016.84 1017.10 1017.68 1017.97 1018.31 1018.57 1019.06 1019.53 1020.16 1020.65 1021.32 1021.86 1022.37 1023.00 1023.73 1024.76 1025.59 1025.92 1025.98 1026.16 1026.53 1027.22 1027.72 1028.30 1028.62 1028.91 1029.07 1029.24 1029.24 1029.34 1029.43 1029.39
1012.13 1012.40 1012.70 1012.92 1013.31 1014.05 1014.46 1014.65 1014.99 1015.35 1015.60 1016.00 1016.61 1016.98 1017.38 1017.92 1018.34 1018.69 1019.10 1019.65 1020.27 1021.39 1022.15 1022.47 1022.95 1024.02 1024.56 1025.22 1025.59 1026.33 1026.79 1027.03 1027.53 1027.99 1028.35 1028.81 1029.28 1029.51 1029.69 1029.63 1029.73 1029.57 1029.30
1012.04 1012.44 1012.41 1012.46 1012.73 1013.13 1013.57 1014.00 1014.47 1014.66 1015.11 1015.64 1015.92 1016.41 1016.86 1017.32 1017.78 1018.32 1018.85 1019.50 1020.18 1020.79 1021.86 1022.48 1022.87 1023.95 1024.61 1025.00 1025.18 1026.32 1026.97 1027.41 1027.93 1028.20 1028.48 1028.92 1029.55 1029.85 1030.05 1029.85 1029.99 1029.76 1029.87
1011.61 1011.98 1012.32 1012.43 1012.69 1013.08 1013.22 1013.39 1014.02 1014.23 1014.86 1015.53 1015.76 1016.02 1016.26 1016.74 1017.48 1018.09 1018.84 1019.29 1019.86 1020.54 1021.27 1021.77 1022.92 1023.63 1024.12 1024.63 1025.36 1026.20 1026.82 1027.33 1027.90 1028.44 1028.73 1028.85 1029.18 1029.88 1030.24 1030.06 1030.18 1030.15 1030.30
1011.83 1012.12 1012.34 1012.74 1012.89 1013.24 1013.42 1013.29 1014.08 1014.20 1014.46 1015.18 1015.59 1015.91 1016.09 1016.51 1017.02 1017.44 1018.29 1019.13 1019.79 1020.31 1020.97 1021.75 1022.42 1023.33 1023.72 1024.44 1025.46 1026.22 1026.81 1027.35 1027.76 1028.10 1028.60 1029.04 1029.30 1029.97 1030.14 1030.39 1030.15 1030.05 1030.43
1011.81 1012.13 1012.66 1012.59 1012.70 1012.96 1013.37 1013.77 1014.12 1014.42 1014.76 1015.28 1015.79 1016.05 1016.17 1016.44 1016.89 1017.39 1017.78 1018.65 1019.53 1020.25 1021.17 1021.85 1022.28 1022.84 1023.36 1024.12 1025.21 1026.01 1026.65 1027.26 1027.70 1028.10 1028.32 1028.91 1029.41 1029.97 1030.06 1030.23 1030.15 1030.06 1030.24
1011.38 1011.88 1012.25 1012.53 1012.73 1012.94 1013.02 1013.54 1014.21 1014.63 1015.07 1015.28 1015.76 1016.11 1016.29 1016.63 1017.21 1017.80 1018.13 1018.55 1019.41 1020.08 1021.18 1021.82 1022.10 1022.52 1023.36 1024.27 1024.88 1025.89 1026.63 1027.23 1027.65 1028.02 1028.27 1028.85 1029.41 1029.61 1029.82 1029.99 1030.06 1030.20 1030.22
1010.79 1011.25 1011.68 1011.81 1012.32 1012.70 1012.96 1013.50 1014.02 1014.66 1015.29 1015.60 1016.03 1016.16 1016.51 1016.90 1017.56 1018.15 1018.77 1019.14 1019.57 1020.32 1021.23 1021.69 1021.79 1022.40 1023.13 1024.24 1024.91 1025.74 1026.39 1026.94 1027.48 1028.19 1028.63 1029.02 1029.47 1029.61 1029.48 1029.86 1029.86 1030.01 1030.13
1010.25 1010.58 1010.86 1011.31 1011.59 1012.23 1012.80 1013.39 1014.00 1014.44 1014.98 1015.48 1015.78 1016.21 1016.64 1017.25 1017.86 1018.31 1018.89 1019.28 1019.82 1020.33 1021.28 1021.77 1021.99 1022.69 1023.33 1024.09 1024.65 1025.12 1026.01 1026.77 1027.20 1027.88 1028.62 1029.01 1029.61 1029.62 1029.65 1029.81 1029.80 1029.83 1029.93
1009.93 1010.17 1010.33 1010.90 1011.41 1011.72 1012.45 1012.86 1013.40 1014.08 1014.81 1015.18 1015.61 1015.91 1016.46 1017.16 1017.59 1018.24 1018.73 1019.22 1019.84 1020.52 1020.96 1021.41 1022.07 1022.36 1023.16 1023.96 1024.50 1025.02 1025.70 1026.46 1027.09 1027.77 1028.26 1028.75 1029.16 1029.42 1029.37 1029.61 1029.64 1029.79 1029.59
1009.93 1010.46 1010.53 1010.62 1010.93 1011.29 1011.66 1012.52 1013.33 1013.92 1014.49 1014.87 1015.28 1015.81 1016.30 1016.88 1017.44 1018.14 1018.58 1019.17 1019.73 1020.05 1020.68 1021.01 1021.95 1022.33 1022.92 1023.36 1024.10 1024.97 1025.45 1026.13 1026.71 1027.37 1027.86 1028.22 1028.78 1028.93 1029.05 1029.34 1029.47 1029.43 1029.26
1010.36 1010.67 1011.07 1010.93 1010.73 1011.09 1011.64 1012.28 1013.03 1013.63 1014.17 1014.43 1015.05 1015.59 1016.00 1016.56 1017.02 1017.62 1018.20 1018.83 1019.55 1020.10 1020.46 1020.94 1021.62 1022.00 1022.64 1023.18 1023.88 1024.64 1025.54 1025.94 1026.41 1026.95 1027.41 1027.77 1028.32 1028.33 1028.55 1028.95 1029.11 1029.09 1029.03
1011.12 1011.48 1011.42 1011.34 1011.13 1011.01 1011.51 1012.25 1012.94 1013.55 1013.67 1013.98 1014.33 1014.91 1015.60 1016.18 1016.75 1017.29 1017.89 1018.36 1019.04 1019.76 1020.60 1021.29 1021.83 1022.00 1022.54 1023.32 1023.87 1024.51 1024.88 1025.58 1026.21 1026.81 1027.23 1027.67 1027.82 1027.81 1028.08 1028.44 1028.60 1028.71 1028.58
1011.68 1012.48 1012.26 1012.09 1011.92 1011.74 1011.94 1012.27 1012.71 1012.70 1013.04 1013.78 1014.34 1014.94 1015.37 1015.83 1016.21 1016.93 1017.69 1018.38 1019.01 1019.73 1020.44 1021.26 1021.87 1022.38 1022.61 1023.04 1023.52 1024.21 1024.51 1024.63 1025.29 1026.06 1026.68 1026.90 1027.10 1027.26 1027.54 1027.69 1027.99 1028.01 1028.06
1012.24 1013.19 1013.32 1012.99 1012.77 1012.53 1012.56 1012.77 1012.98 1013.17 1013.49 1013.91 1014.47 1015.00 1015.50 1015.83 1016.32 1016.87 1017.47 1018.05 1018.62 1019.28 1020.11 1020.86 1021.66 1022.29 1022.70 1023.00 1023.11 1023.27 1024.04 1024.41 1024.72 1025.32 1025.85 1026.26 1026.50 1026.74 1027.01 1027.16 1027.21 1027.37 1027.44
1013.71 1014.06 1013.77 1013.58 1013.56 1013.49 1013.25 1013.14 1013.02 1013.27 1013.66 1014.03 1014.50 1015.00 1015.47 1015.95 1016.46 1016.82 1017.36 1018.12 1018.65 1019.15 1019.77 1020.45 1021.19 1021.96 1022.59 1023.06 1023.07 1023.20 1023.49 1024.13 1024.74 1024.98 1025.36 1025.74 1026.12 1026.40 1026.46 1026.36 1026.62 1027.11 1027.38
1014.81 1014.69 1014.28 1014.11 1014.18 1014.09 1013.90 1013.85 1013.75 1013.77 1013.92 1014.25 1014.67 1015.05 1015.53 1016.02 1016.39 1016.77 1017.26 1017.57 1017.99 1018.54 1019.15 1019.93 1020.64 1021.32 1022.06 1022.47 1022.76 1023.16 1023.50 1023.95 1024.45 1024.94 1025.12 1025.46 1025.69 1025.94 1026.07 1026.54 1026.69 1026.90 1027.07
1015.85 1015.37 1015.10 1015.05 1014.82 1014.87 1014.68 1014.36 1014.22 1014.18 1014.34 1014.51 1014.73 1014.95 1015.19 1015.57 1016.10 1016.38 1016.61 1016.86 1017.21 1017.61 1018.09 1018.62 1019.36 1020.13 1020.88 1021.00 1021.48 1022.16 1022.67 1023.20 1023.74 1024.39 1025.01 1025.28 1025.42 1025.60 1025.76 1026.04 1026.32 1026.58 1026.85
1016.29 1015.86 1015.70 1015.78 1015.92 1015.72 1015.38 1015.07 1014.91 1014.80 1014.71 1014.83 1015.10 1015.08 1015.12 1015.39 1015.70 1016.08 1016.57 1016.86 1017.10 1017.35 1017.66 1018.18 1018.59 1019.28 1019.63 1020.27 1020.94 1021.50 1022.10 1022.62 1023.38 1023.95 1024.26 1024.42 1024.68 1024.88 1025.14 1025.54 1025.83 1026.25 1026.50
Wind_Speed
15 16 17 16 16 16 16 17 16 16 12 10 9 8 9 9 8 8 10 8 7 9 7 5 5 7 6 5 5 2 3 2 2 4 2 3 3 4 4 4 5 8 9
15 16 17 17 17 17 18 17 17 17 14 11 10 8 9 9 10 8 8 9 10 9 8 7 6 7 5 6 5 4 2 1 1 1 2 2 4 3 4 5 5 9 7
18 17 18 19 18 20 19 18 19 18 16 16 10 8 7 5 6 6 8 9 11 11 10 9 7 7 7 6 6 6 6 4 1 1 2 3 1 2 2 4 4 8 7
17 16 18 18 20 19 18 19 19 19 17 18 14 15 12 11 10 10 8 9 14 10 10 8 9 8 7 6 5 4 5 4 4 2 2 2 3 2 2 3 3 6 7
19 19 20 19 19 17 17 17 19 19 19 17 17 13 14 10 9 9 11 10 7 8 10 8 7 5 4 4 5 5 5 4 5 3 3 1 1 1 2 1 2 2 4
18 18 16 13 16 15 15 16 19 19 19 18 19 19 18 15 11 10 9 7 6 5 9 9 7 6 5 6 5 4 5 4 3 3 4 4 3 4 3 3 2 3 2
14 14 15 13 16 17 16 15 17 19 19 19 19 20 20 18 18 15 11 12 7 4 7 7 8 6 6 6 5 6 6 6 6 6 5 3 3 3 2 3 2 3 2
10 11 14 12 12 12 14 17 17 18 18 19 20 16 18 12 13 14 11 10 11 11 10 8 9 9 8 6 5 6 6 8 7 8 6 5 4 3 2 2 2 3 3
9 10 9 13 14 13 15 16 17 16 18 18 16 16 15 13 11 14 13 10 9 8 8 9 11 8 9 8 9 6 8 8 7 8 7 6 4 4 3 3 0 1 1
7 9 10 11 11 13 14 15 17 17 15 15 15 13 12 12 11 10 11 12 10 13 13 11 12 9 8 10 11 9 9 9 6 6 8 7 5 5 4 4 3 1 1
7 7 7 6 8 9 11 13 14 14 12 12 13 14 13 11 10 9 9 10 11 13 14 15 11 12 12 11 11 10 11 10 9 7 8 8 8 5 4 4 3 3 0
7 7 7 6 5 7 9 11 12 12 11 10 11 11 11 11 10 13 13 12 12 12 12 13 13 12 12 12 12 11 10 11 11 10 9 9 6 6 6 4 5 4 2
5 4 6 6 6 7 8 8 8 9 8 8 9 9 10 11 11 10 12 12 12 12 11 13 14 13 13 13 11 11 10 10 9 10 9 9 8 7 5 5 4 4 3
4 4 5 6 7 8 9 10 9 8 7 7 9 10 10 9 7 8 10 11 12 13 11 11 12 12 12 12 11 11 11 10 9 8 8 8 8 8 8 5 5 4 3
6 7 7 7 9 9 9 8 8 7 7 8 9 9 6 6 6 8 8 8 10 10 11 11 11 12 11 9 12 11 11 11 10 8 7 7 7 6 6 5 5 4 3
10 10 9 10 11 10 9 8 9 9 9 10 10 7 8 7 7 8 9 9 9 10 10 10 11 12 6 17 17 13 10 10 10 10 8 8 7 8 8 6 5 4 4
11 10 10 8 8 10 11 13 12 10 10 9 7 8 8 9 9 9 10 11 11 12 10 11 12 11 10 20 19 15 9 10 10 10 9 7 5 6 7 8 7 7 6
8 9 8 8 8 9 10 9 9 9 9 9 9 9 10 10 10 11 11 11 11 13 12 11 11 11 9 21 20 16 10 9 10 10 9 8 8 9 7 7 6 7 5
4 5 7 9 6 7 8 8 8 9 10 11 10 10 11 11 12 13 13 11 11 10 10 10 11 12 10 20 21 16 9 9 9 8 8 8 9 11 12 6 6 6 6
4 5 6 6 6 5 7 8 8 9 13 11 12 11 11 12 13 12 12 10 10 10 8 8 8 10 11 19 21 15 8 9 7 6 7 11 9 12 12 6 5 7 6
5 7 7 7 7 1 5 7 7 13 9 6 7 9 10 11 12 11 9 9 9 9 8 9 7 7 9 14 21 19 8 8 8 7 7 7 16 13 14 12 6 8 4
6 6 6 7 7 3 3 4 8 3 4 7 8 9 9 8 8 12 10 11 11 12 10 10 8 6 7 12 20 22 15 12 8 8 6 7 14 13 14 11 13 14 9
6 4 4 5 6 5 2 4 3 5 5 6 7 8 8 8 8 11 10 9 9 9 9 9 8 8 7 7 16 19 19 16 7 5 8 11 12 14 13 14 9 4 3
5 4 5 6 6 5 4 3 2 3 5 6 6 6 8 8 7 7 7 9 9 9 9 9 9 8 8 8 7 7 9 12 10 9 7 9 10 10 8 4 5 4 5
3 3 5 5 6 7 6 4 2 3 3 4 5 6 6 8 8 8 8 9 10 11 11 11 10 11 10 12 16 13 9 8 9 7 5 6 6 7 7 6 6 5 4
5 6 6 5 6 6 6 6 4 2 3 3 4 5 6 7 7 8 7 9 8 13 13 14 12 7 8 16 22 21 19 17 17 7 7 8 8 8 8 7 6 5 5
Wind_Direction
204 205 207 208 203 199 199 200 197 199 192 193 191 204 207 203 205 215 203 200 202 203 202 217 212 198 212 220 203 207 214 211 303 304 312 122 105 70 89 81 58 41 37
213 205 205 206 212 207 205 204 203 200 198 198 198 200 200 212 208 203 199 196 204 197 200 204 206 211 207 209 193 190 178 183 313 304 293 258 151 169 74 89 61 30 39
217 209 205 207 210 214 209 207 206 205 203 206 199 203 200 201 201 197 209 210 205 199 200 202 200 202 209 211 190 195 197 183 121 112 313 247 233 317 113 92 68 24 42
225 214 211 210 214 215 213 214 209 209 207 202 201 202 204 206 213 205 196 199 202 196 206 201 202 208 203 203 177 177 198 185 168 153 80 40 334 263 183 150 76 38 52
222 213 212 213 210 210 214 213 214 212 208 204 204 203 212 215 218 216 202 196 181 192 203 198 201 176 176 164 162 173 181 185 179 189 153 142 20 315 270 262 6 35 54
229 228 216 213 215 211 211 211 215 216 213 211 211 211 213 213 210 206 199 185 172 177 194 182 172 141 142 151 150 153 151 162 154 147 171 185 187 184 177 225 279 326 18
218 224 219 205 215 209 205 208 211 217 213 213 214 216 217 216 218 214 208 177 170 182 185 161 158 150 141 132 136 142 142 152 143 140 136 125 103 118 147 190 155 240 242
222 214 215 222 232 220 207 205 206 215 210 213 218 217 219 222 221 220 211 205 187 186 159 158 157 140 136 130 134 135 130 128 132 134 125 121 114 112 116 142 191 180 223
242 230 221 222 222 216 215 213 211 212 209 214 216 216 216 213 219 218 211 202 180 164 149 148 142 141 135 150 144 138 136 129 132 132 131 125 120 113 112 114 218 318 202
249 248 232 223 220 220 217 209 210 207 205 207 209 211 208 207 208 199 191 182 169 159 160 149 154 148 140 155 137 140 144 138 134 140 141 133 126 123 130 129 140 83 290
258 262 276 252 239 227 217 208 206 197 194 199 200 208 209 199 181 178 175 169 158 164 170 163 159 154 151 149 146 152 152 147 142 143 143 137 143 146 144 142 148 122 151
291 276 267 258 232 230 220 201 201 197 197 199 204 210 208 196 185 191 180 170 165 172 158 162 157 159 149 148 155 154 158 154 154 155 150 143 141 149 156 162 149 136 130
286 277 266 241 219 209 205 213 204 205 196 197 207 207 205 200 196 185 172 174 161 161 155 165 160 157 150 152 158 157 158 158 156 159 155 153 159 165 164 166 157 150 155
303 287 253 242 226 215 203 202 210 210 197 193 204 207 205 197 190 176 167 162 160 155 156 166 158 148 147 154 149 154 154 154 155 152 151 156 173 169 169 161 159 158 163
247 253 253 235 226 221 212 205 210 196 194 196 207 212 187 174 151 155 151 139 154 148 159 153 147 146 150 155 155 158 159 158 151 148 152 163 171 165 167 174 169 175 187
268 252 241 237 227 221 215 203 210 201 188 199 202 179 165 148 154 147 149 143 147 144 159 165 151 153 150 162 161 157 159 159 156 157 160 161 168 179 168 176 179 196 192
264 265 254 247 230 215 208 212 205 185 194 193 176 168 164 166 162 155 153 157 160 156 156 162 161 158 156 168 167 158 155 158 163 163 164 166 182 191 187 196 198 211 230
271 279 278 261 235 219 206 212 189 181 181 190 179 178 173 168 161 162 169 163 168 170 165 159 167 158 167 170 168 162 155 159 165 167 168 171 184 196 191 201 215 223 230
313 295 299 286 263 216 202 180 178 180 191 199 190 184 179 174 172 176 175 170 167 168 172 167 167 164 164 171 170 160 158 160 165 169 174 181 195 192 201 206 225 235 240
21 337 315 283 262 232 169 168 183 188 212 201 196 184 182 178 182 181 177 173 173 166 161 163 173 165 161 176 174 168 161 161 164 167 183 198 202 198 210 216 215 239 239
26 342 322 303 300 233 163 191 185 213 213 189 180 183 186 186 182 173 170 161 161 151 159 165 166 169 171 177 181 180 176 172 168 180 190 198 209 210 219 228 220 232 224
40 10 346 345 337 339 174 191 220 217 164 163 173 183 186 182 173 172 164 167 165 166 168 167 167 174 174 184 191 190 193 185 177 189 190 196 202 214 223 232 240 240 250
14 2 15 1 12 355 276 219 239 165 159 162 179 180 174 174 175 174 169 166 171 173 174 176 177 181 182 193 201 201 202 200 200 182 188 195 205 221 229 238 240 234 225
6 345 13 26 3 350 328 280 259 157 157 175 177 170 174 174 177 181 180 182 182 181 178 182 188 180 180 188 187 199 202 208 201 192 192 204 213 222 230 210 228 222 228
344 3 27 6 2 345 341 342 303 158 165 160 163 173 181 182 183 196 191 196 199 196 188 192 183 174 188 201 190 185 187 188 194 168 179 200 207 211 214 215 220 224 225
353 13 25 15 359 351 344 340 325 230 167 177 190 196 187 185 189 189 187 213 206 204 203 193 188 192 214 187 191 194 194 192 193 185 201 205 208 215 215 218 219 218 220